Location: Prague
(50.0830°N, 14.4670°E)
Time: 01:45:38
(UTC+01:00)

Oscar 11 - Pass Details

Date: 03 December 2021
Orbit: 611 x 625 km, 97.6° (Epoch: 17 January)

Event Time Altitude Azimuth Distance (km) Brightness Sun altitude
Rises 16:35:44 0° 170° (S) 2,895 10.8 -5.5°
Reaches altitude 10° 16:37:55 10° 173° (S) 1,994 10.0 -5.8°
Maximum altitude 16:42:16 72° 258° (WSW) 662 7.4 -6.4°
Drops below altitude 10° 16:46:39 10° 343° (NNW) 2,013 9.6 -7.0°
Sets 16:48:52 0° 346° (NNW) 2,924 10.4 -7.3°
